STARLINK-33888, 63860

Orbit data source: Space-Track

STARLINK-33888, 63860 is a payload satellite owned by SpaceX/Seattle (US) in LEO that was launched on Wed, 07 May 2025 UTC via an FALCON 9 launch vehicle from the Air Force Eastern Test Range (AFETR). Payload-class satellites include a variety of spacecraft equipped with specific instruments for various scientific and technological missions. These include communications satellites like Starlink; space stations such as the ISS; scientific satellites like the Hubble; Earth observation satellites from companies like Planet Labs, Umbra, and HawkEye 360; GPS; miniature CubeSats for education and research; and military/defense satellites.

Loading next visibility...
Identifier
63860, 2025-093AA
Orbit
LEO
Country
Flag of USUS
Related business
Manufacturer
SpaceX/Seattle
Mission
Operational Commercial Communications
Bus & Motor
STARLINK V2MO, Unknown motor
Mass
575 kg wet, ~530 kg dry
Launch date (UTC)
2025-05-07 (7 months ago)
Launch vehicle
FALCON 9
Launch site
Air Force Eastern Test Range (AFETR)
Object type
Payload
Rocket body
Debris
Shape & HBR
Box + 2 Pan, 17.7 m
Radar Cross Section
36.964 m², Large (>1 m²)

Expand to show TLE details & history
Last TLE update: 14 hours ago

TLE from 14 hours ago
0 STARLINK-33888
1 63860U 25093AA  25349.61804914  .00016870  00000-0  62132-3 0  9997
2 63860  43.0010 192.7493 0000224 272.1214  87.9612 15.27572273 35119
Epoch: 2025-12-15T14:49Z
TLE epoch observation values (Epoch: 2025-12-15T14:49:59.445Z)
Latitude
-0.00003°
Longitude
-114.26245°
Altitude
482.842 km
Speed
7.626 km/s
True Right ascension
12h 50m 59s
True Declination
0° 00' 00"
Sunlit
Object was in daylight at epoch
Visualization orbit readout
Latitude
Unknown
Longitude
Unknown
Altitude
Unknown
Speed
Unknown
Apparent Right ascension
Unknown
Apparent Declination
Unknown
Sunlit
N/A
Visualization observer readout
Local Sidereal Time
03:10:35
Azimuth
Unknown
Elevation
Unknown
Doppler factor
Unknown
Orbital elements
Apogee altitude
485.171 km
Perigee altitude
484.863 km
Semi-major axis
6,863.154 km
Eccentricity
0.00002
Inclination
43.001°
RAAN
192.7493°
Arg. of periapsis
272.1214°
True anomaly
87.96377°
Mean anomaly
87.9612°
Eccentric anomaly
87.96248°
Mean motion
3.81731 °/min
Orbital period
94.31 mins
BSTAR
0.00062132
Loading maneuver chart data...
Computing Atmospheric mass density...
Loading historical data...
Loading historical data...
Loading historical data...
Loading historical data...
Loading historical data...
Loading historical data...
Loading historical data...

Documentation

Showing up to 5 results
|